AAL1989 KSAN-KLAX

Flight info

Callsign AAL1989
Flight time 0h 42m
Altitude 10000
Route CWARD2 SLI
Aircraft A20N/M-SDE2E3FGHIRWXY/LB1

Departure

Time 2026-04-21 00:54
Airport San Diego International Airport (KSAN)

Arrival

Time 2026-04-21 01:37
Airport Los Angeles International Airport (KLAX)
Time Latitude Longitude Altitude Speed Heading
2026-04-21 00:37 32.73439 -117.18493 23 ft 0 kts 15°
2026-04-21 00:46 32.73433 -117.18495 23 ft 1 kts 19°
2026-04-21 00:46 32.73426 -117.18498 28 ft 1 kts 30°
2026-04-21 00:46 32.73419 -117.18503 29 ft 1 kts 41°
2026-04-21 00:46 32.73414 -117.18509 28 ft 1 kts 52°
2026-04-21 00:47 32.73407 -117.18520 25 ft 2 kts 66°
2026-04-21 00:47 32.73402 -117.18543 27 ft 3 kts 86°
2026-04-21 00:47 32.73402 -117.18557 27 ft 0 kts 103°
2026-04-21 00:51 32.73381 -117.18521 27 ft 12 kts 134°
2026-04-21 00:51 32.73360 -117.18490 25 ft 4 kts 120°
2026-04-21 00:51 32.73354 -117.18479 30 ft 1 kts 120°
2026-04-21 00:51 32.73341 -117.18431 26 ft 14 kts 105°
2026-04-21 00:52 32.73298 -117.18241 24 ft 33 kts 105°
2026-04-21 00:52 32.73244 -117.18026 25 ft 25 kts 107°
2026-04-21 00:52 32.73190 -117.17802 23 ft 30 kts 106°
2026-04-21 00:52 32.73136 -117.17599 23 ft 21 kts 121°
2026-04-21 00:53 32.73096 -117.17551 22 ft 0 kts 159°
2026-04-21 00:53 32.73093 -117.17550 22 ft 2 kts 158°
2026-04-21 00:53 32.73046 -117.17535 23 ft 10 kts 195°
2026-04-21 00:54 32.73028 -117.17617 23 ft 13 kts 282°
2026-04-21 00:54 32.73102 -117.17919 19 ft 77 kts 285°
2026-04-21 00:54 32.73318 -117.18812 28 ft 145 kts 286°
2026-04-21 00:54 32.73639 -117.20016 623 ft 157 kts 287°
2026-04-21 00:55 32.74077 -117.21273 1393 ft 169 kts 296°
2026-04-21 00:55 32.74697 -117.22495 2115 ft 180 kts 303°
2026-04-21 00:55 32.75462 -117.23786 2657 ft 202 kts 304°
2026-04-21 00:55 32.76313 -117.25233 3098 ft 227 kts 303°
2026-04-21 00:56 32.77242 -117.26875 3599 ft 250 kts 302°
2026-04-21 00:56 32.78223 -117.28667 4285 ft 264 kts 301°
2026-04-21 00:56 32.79212 -117.30496 5176 ft 270 kts 301°
2026-04-21 00:56 32.80287 -117.32365 6029 ft 278 kts 306°
2026-04-21 00:57 32.81479 -117.34197 6916 ft 282 kts 306°
2026-04-21 00:57 32.82681 -117.36052 7790 ft 285 kts 306°
2026-04-21 00:57 32.83900 -117.37942 8631 ft 290 kts 305°
2026-04-21 00:57 32.85140 -117.39865 9301 ft 299 kts 306°
2026-04-21 00:58 32.86398 -117.41819 9400 ft 295 kts 305°
2026-04-21 00:58 32.87646 -117.43755 9506 ft 296 kts 305°
2026-04-21 00:58 32.88902 -117.45705 9620 ft 297 kts 305°
2026-04-21 00:58 32.90158 -117.47658 9733 ft 297 kts 305°
2026-04-21 00:59 32.91417 -117.49616 9833 ft 298 kts 305°
2026-04-21 00:59 32.92677 -117.51576 9951 ft 298 kts 305°
2026-04-21 00:59 32.93940 -117.53543 9979 ft 299 kts 305°
2026-04-21 00:59 32.95203 -117.55510 9978 ft 299 kts 305°
2026-04-21 01:00 32.96469 -117.57485 9979 ft 317 kts 305°
2026-04-21 01:00 32.97867 -117.59674 9978 ft 343 kts 305°
2026-04-21 01:00 32.99301 -117.61909 9979 ft 331 kts 305°
2026-04-21 01:00 33.00666 -117.64033 9978 ft 315 kts 305°
2026-04-21 01:01 33.01963 -117.66052 9987 ft 299 kts 305°
2026-04-21 01:01 33.03215 -117.68007 9980 ft 299 kts 305°
2026-04-21 01:01 33.04482 -117.69991 9981 ft 300 kts 305°
2026-04-21 01:01 33.05748 -117.71962 9988 ft 299 kts 307°
2026-04-21 01:02 33.07181 -117.73777 9988 ft 302 kts 316°
2026-04-21 01:02 33.08783 -117.75396 9990 ft 302 kts 318°
2026-04-21 01:02 33.10386 -117.77013 9984 ft 302 kts 317°
2026-04-21 01:02 33.11988 -117.78640 9978 ft 302 kts 317°
2026-04-21 01:03 33.13586 -117.80269 9981 ft 302 kts 317°
2026-04-21 01:03 33.15181 -117.81894 9972 ft 302 kts 317°
2026-04-21 01:03 33.16783 -117.83527 9979 ft 302 kts 317°
2026-04-21 01:03 33.18412 -117.85059 9985 ft 303 kts 325°
2026-04-21 01:04 33.20289 -117.86229 9977 ft 306 kts 337°
2026-04-21 01:04 33.22332 -117.86941 9975 ft 307 kts 348°
2026-04-21 01:04 33.24432 -117.87439 9976 ft 307 kts 347°
2026-04-21 01:04 33.26532 -117.87955 9977 ft 307 kts 347°
2026-04-21 01:05 33.28625 -117.88477 9975 ft 307 kts 347°
2026-04-21 01:05 33.30722 -117.89001 9978 ft 307 kts 347°
2026-04-21 01:05 33.32819 -117.89525 9972 ft 308 kts 347°
2026-04-21 01:05 33.34917 -117.90049 9971 ft 308 kts 347°
2026-04-21 01:06 33.37017 -117.90574 9976 ft 308 kts 347°
2026-04-21 01:06 33.39098 -117.91160 9962 ft 305 kts 342°
2026-04-21 01:06 33.41097 -117.91893 9896 ft 296 kts 342°
2026-04-21 01:06 33.43035 -117.92599 9798 ft 285 kts 342°
2026-04-21 01:07 33.44894 -117.93275 9691 ft 274 kts 342°
2026-04-21 01:07 33.46657 -117.93914 9567 ft 263 kts 341°
2026-04-21 01:07 33.48387 -117.94544 9329 ft 258 kts 341°
2026-04-21 01:07 33.50103 -117.95169 9002 ft 257 kts 341°
2026-04-21 01:08 33.51805 -117.95789 8685 ft 255 kts 342°
2026-04-21 01:08 33.53503 -117.96408 8367 ft 254 kts 342°
2026-04-21 01:08 33.55191 -117.97023 8063 ft 253 kts 342°
2026-04-21 01:08 33.56868 -117.97635 7756 ft 251 kts 342°
2026-04-21 01:09 33.58538 -117.98243 7450 ft 250 kts 342°
2026-04-21 01:09 33.60197 -117.98848 7169 ft 248 kts 342°
2026-04-21 01:09 33.61822 -117.99439 7020 ft 242 kts 342°
2026-04-21 01:09 33.63450 -118.00034 6990 ft 248 kts 342°
2026-04-21 01:10 33.64545 -118.00434 6988 ft 249 kts 342°
2026-04-21 01:10 33.66203 -118.01039 6987 ft 248 kts 341°
2026-04-21 01:10 33.68410 -118.01845 6947 ft 248 kts 342°
2026-04-21 01:10 33.69503 -118.02245 6943 ft 249 kts 341°
2026-04-21 01:11 33.71164 -118.02852 6945 ft 249 kts 341°
2026-04-21 01:11 33.72823 -118.03459 6941 ft 249 kts 341°
2026-04-21 01:11 33.74480 -118.04064 6942 ft 248 kts 341°
2026-04-21 01:11 33.76135 -118.04670 6943 ft 250 kts 341°
2026-04-21 01:12 33.77798 -118.05281 6934 ft 249 kts 340°
2026-04-21 01:12 33.79454 -118.05835 6887 ft 248 kts 355°
2026-04-21 01:12 33.81175 -118.05834 6665 ft 247 kts
2026-04-21 01:12 33.82892 -118.05773 6393 ft 247 kts
2026-04-21 01:13 33.84606 -118.05714 6097 ft 246 kts
2026-04-21 01:13 33.86313 -118.05650 5855 ft 244 kts
2026-04-21 01:13 33.88000 -118.05611 5598 ft 241 kts 354°
2026-04-21 01:13 33.89558 -118.06239 5275 ft 237 kts 324°
2026-04-21 01:14 33.90890 -118.07393 5011 ft 234 kts 321°
2026-04-21 01:14 33.92189 -118.08560 4710 ft 232 kts 321°
2026-04-21 01:14 33.93459 -118.09709 4390 ft 231 kts 321°
2026-04-21 01:14 33.94675 -118.10950 4057 ft 228 kts 306°
2026-04-21 01:15 33.95406 -118.12616 3736 ft 225 kts 291°
2026-04-21 01:15 33.96014 -118.14349 3446 ft 223 kts 291°
2026-04-21 01:15 33.96606 -118.16067 3155 ft 221 kts 291°
2026-04-21 01:15 33.97185 -118.17753 3077 ft 220 kts 291°
2026-04-21 01:16 33.97491 -118.19545 3015 ft 218 kts 262°
2026-04-21 01:16 33.96946 -118.21218 3020 ft 218 kts 233°
2026-04-21 01:16 33.96021 -118.22666 3014 ft 218 kts 233°
2026-04-21 01:16 33.95294 -118.24242 2941 ft 211 kts 251°
2026-04-21 01:17 33.94978 -118.25885 2890 ft 188 kts 261°
2026-04-21 01:17 33.94850 -118.27346 2718 ft 164 kts 264°
2026-04-21 01:17 33.94712 -118.28655 2426 ft 153 kts 263°
2026-04-21 01:17 33.94592 -118.29881 2193 ft 139 kts 262°
2026-04-21 01:18 33.94478 -118.30992 1998 ft 129 kts 263°
2026-04-21 01:18 33.94369 -118.32053 1695 ft 128 kts 263°
2026-04-21 01:18 33.94264 -118.33101 1371 ft 127 kts 263°
2026-04-21 01:18 33.94157 -118.34135 1097 ft 125 kts 265°
2026-04-21 01:19 33.94050 -118.35189 757 ft 126 kts 263°
2026-04-21 01:19 33.93930 -118.36262 501 ft 144 kts 258°
2026-04-21 01:19 33.93457 -118.37407 860 ft 154 kts 242°
2026-04-21 01:19 33.92931 -118.38528 1441 ft 159 kts 242°
2026-04-21 01:20 33.92385 -118.39682 1539 ft 155 kts 241°
2026-04-21 01:20 33.91863 -118.40782 1717 ft 146 kts 241°
2026-04-21 01:20 33.91357 -118.41846 1929 ft 150 kts 242°
2026-04-21 01:20 33.90827 -118.42941 2123 ft 151 kts 242°
2026-04-21 01:21 33.90298 -118.44035 2558 ft 154 kts 241°
2026-04-21 01:21 33.89780 -118.45150 3286 ft 152 kts 240°
2026-04-21 01:21 33.89030 -118.46022 3894 ft 154 kts 199°
2026-04-21 01:21 33.87969 -118.46059 4496 ft 161 kts 173°
2026-04-21 01:22 33.86755 -118.45827 4647 ft 190 kts 171°
2026-04-21 01:22 33.85421 -118.45562 4854 ft 202 kts 171°
2026-04-21 01:22 33.83957 -118.45273 4923 ft 223 kts 171°
2026-04-21 01:22 33.82438 -118.44978 4983 ft 225 kts 171°
2026-04-21 01:23 33.80923 -118.44565 4979 ft 223 kts 155°
2026-04-21 01:23 33.79761 -118.43349 4985 ft 226 kts 122°
2026-04-21 01:23 33.79331 -118.41537 4993 ft 231 kts 89°
2026-04-21 01:23 33.79547 -118.39601 4987 ft 234 kts 81°
2026-04-21 01:24 33.79830 -118.37688 4986 ft 231 kts 81°
2026-04-21 01:24 33.80114 -118.35778 4991 ft 232 kts 81°
2026-04-21 01:24 33.80399 -118.33875 4904 ft 231 kts 81°
2026-04-21 01:24 33.80681 -118.31980 4680 ft 228 kts 81°
2026-04-21 01:25 33.80949 -118.30144 4584 ft 217 kts 81°
2026-04-21 01:25 33.81201 -118.28403 4468 ft 205 kts 81°
2026-04-21 01:25 33.81440 -118.26768 4003 ft 198 kts 81°
2026-04-21 01:25 33.81674 -118.25111 3448 ft 198 kts 81°
2026-04-21 01:26 33.81892 -118.23487 3328 ft 204 kts 81°
2026-04-21 01:26 33.82115 -118.21819 3222 ft 203 kts 81°
2026-04-21 01:26 33.82339 -118.20133 3115 ft 204 kts 81°
2026-04-21 01:26 33.82560 -118.18449 3008 ft 204 kts 81°
2026-04-21 01:27 33.82777 -118.16810 2993 ft 194 kts 81°
2026-04-21 01:27 33.82989 -118.15214 3002 ft 193 kts 81°
2026-04-21 01:27 33.83201 -118.13616 2996 ft 193 kts 81°
2026-04-21 01:27 33.83412 -118.12020 2995 ft 193 kts 81°
2026-04-21 01:28 33.83623 -118.10444 2994 ft 186 kts 81°
2026-04-21 01:28 33.83830 -118.08932 2997 ft 182 kts 81°
2026-04-21 01:28 33.84360 -118.07566 2973 ft 184 kts 44°
2026-04-21 01:28 33.85482 -118.06922 2975 ft 181 kts
2026-04-21 01:29 33.86746 -118.06831 2996 ft 181 kts
2026-04-21 01:29 33.88012 -118.06766 2998 ft 182 kts
2026-04-21 01:29 33.89260 -118.06702 2998 ft 182 kts
2026-04-21 01:29 33.90505 -118.06931 2997 ft 180 kts 330°
2026-04-21 01:30 33.91290 -118.07961 2995 ft 161 kts 294°
2026-04-21 01:30 33.91727 -118.09176 2995 ft 157 kts 291°
2026-04-21 01:30 33.92153 -118.10384 2995 ft 157 kts 291°
2026-04-21 01:30 33.92578 -118.11590 2996 ft 155 kts 291°
2026-04-21 01:31 33.92977 -118.12720 2993 ft 141 kts 291°
2026-04-21 01:31 33.93362 -118.13810 2996 ft 142 kts 291°
2026-04-21 01:31 33.93747 -118.14894 2994 ft 141 kts 291°
2026-04-21 01:31 33.94129 -118.15979 2993 ft 141 kts 291°
2026-04-21 01:32 33.94512 -118.17066 2997 ft 141 kts 291°
2026-04-21 01:32 33.94867 -118.18163 3000 ft 139 kts 278°
2026-04-21 01:32 33.94774 -118.19293 2860 ft 135 kts 253°
2026-04-21 01:32 33.94468 -118.20355 2575 ft 134 kts 248°
2026-04-21 01:33 33.94325 -118.21446 2279 ft 131 kts 276°
2026-04-21 01:33 33.94436 -118.22510 2147 ft 122 kts 275°
2026-04-21 01:33 33.94523 -118.23576 2186 ft 134 kts 274°
2026-04-21 01:33 33.94613 -118.24680 2181 ft 134 kts 274°
2026-04-21 01:34 33.94732 -118.25794 2153 ft 137 kts 278°
2026-04-21 01:34 33.94825 -118.26929 1993 ft 134 kts 270°
2026-04-21 01:34 33.94783 -118.28028 1812 ft 129 kts 264°
2026-04-21 01:34 33.94673 -118.29090 1645 ft 128 kts 262°
2026-04-21 01:35 33.94564 -118.30146 1466 ft 128 kts 262°
2026-04-21 01:35 33.94455 -118.31221 1303 ft 129 kts 262°
2026-04-21 01:35 33.94348 -118.32272 1119 ft 124 kts 263°
2026-04-21 01:35 33.94241 -118.33314 953 ft 126 kts 263°
2026-04-21 01:36 33.94135 -118.34349 791 ft 125 kts 265°
2026-04-21 01:36 33.94029 -118.35385 622 ft 124 kts 263°
2026-04-21 01:36 33.93922 -118.36433 441 ft 128 kts 264°
2026-04-21 01:36 33.93814 -118.37494 274 ft 125 kts 263°
2026-04-21 01:37 33.93714 -118.38505 134 ft 120 kts 263°
2026-04-21 01:37 33.93640 -118.39232 124 ft 52 kts 263°
2026-04-21 01:37 33.93596 -118.39636 123 ft 45 kts 263°
2026-04-21 01:37 33.93566 -118.39926 125 ft 16 kts 263°
2026-04-21 01:38 33.93564 -118.40058 124 ft 17 kts 272°
2026-04-21 01:38 33.93575 -118.40203 124 ft 18 kts 283°
2026-04-21 01:38 33.93618 -118.40346 122 ft 18 kts 288°
2026-04-21 01:38 33.93620 -118.40492 125 ft 18 kts 264°
2026-04-21 01:39 33.93601 -118.40654 125 ft 21 kts 265°
2026-04-21 01:39 33.93603 -118.40834 124 ft 22 kts 286°
2026-04-21 01:39 33.93726 -118.40910 123 ft 22 kts 355°
2026-04-21 01:39 33.93775 -118.40913 124 ft 0 kts 356°
2026-04-21 01:40 33.93784 -118.40914 123 ft 3 kts 356°
2026-04-21 01:40 33.93810 -118.40916 123 ft 6 kts 355°
2026-04-21 01:40 33.93863 -118.40893 121 ft 11 kts 58°
2026-04-21 01:41 33.93921 -118.40810 122 ft 16 kts
2026-04-21 01:41 33.93970 -118.40757 123 ft 9 kts 68°
2026-04-21 01:41 33.93978 -118.40731 125 ft 0 kts 70°